Date String (YYYY-MM-DD hh:mm:ss) UTC,Instrument flags,absolute air pressure of the measurement (hPa),sample flow rate (lpm),inlet stack bypass flow (lpm),air temperature of the measurement (°C),ambient temperature measured by the external sensor (°C),aerosol sample conditioner tube jacket temperature (°C),OPC LED temperature (°C),internal box temperature (°C),relative humidity of the measurement (%),span deviation,mass concentration of particles derived from Lorenz-Mie calculation of OPC scattering (μg/m³),mass concentration of particles derived from Lorenz-Mie calculation of OPC scattering (μg/m³),mass concentration of particles derived from Lorenz-Mie calculation of OPC scattering (μg/m³)
DateTimeUTC,F1_M11,P_M11,Q1_M11,Q2_M11,T1_M11,T2_M11,T3_M11,T4_M11,T5_M11,U1_M11,ZSPAN_M11,X0_M11,X2_M11,X1_M11
2023-06-26 07:00:00,SystemResetWarning,0832.1,4.99,000.00,029.7,027.8,000.0,038.3,031.2,30.2,0000.0,0012.11,0005.26,0004.30
2023-06-26 07:01:00,SystemResetWarning,0832.1,5.00,000.00,029.7,027.9,000.0,038.3,031.2,30.1,0000.0,0012.58,0005.29,0004.35
2023-06-26 07:02:00,SystemResetWarning,0832.1,5.01,000.00,029.7,028.1,000.0,038.3,031.3,30.1,0000.0,0012.83,0005.39,0004.41
2023-06-26 07:03:00,SystemResetWarning,0832.1,5.00,000.00,029.8,028.1,000.0,038.3,031.3,29.9,0000.0,0013.21,0005.46,0004.47
2023-06-26 07:04:00,SystemResetWarning,0832.2,5.00,000.00,029.8,028.2,000.0,038.3,031.3,29.9,0000.0,0013.59,0005.51,0004.52
2023-06-26 07:05:00,SystemResetWarning,0832.2,5.00,000.00,029.8,028.3,000.0,038.3,031.4,29.9,0000.0,0013.88,0005.58,0004.57
2023-06-26 07:06:00,SystemResetWarning,0832.2,5.00,000.00,029.8,028.3,000.0,038.3,031.4,29.9,0000.0,0013.73,0005.63,0004.61
2023-06-26 07:07:00,SystemResetWarning,0832.2,5.00,000.00,029.9,028.4,000.0,038.4,031.4,29.9,0000.0,0013.35,0005.65,0004.64
2023-06-26 07:08:00,SystemResetWarning,0832.1,5.01,000.00,029.9,028.4,000.0,038.4,031.5,29.9,0000.0,0013.18,0005.71,0004.69
2023-06-26 07:09:00,SystemResetWarning,0832.1,5.01,000.00,029.9,028.5,000.0,038.4,031.5,29.8,0000.0,0013.34,0005.74,0004.70
2023-06-26 07:10:00,SystemResetWarning,0832.1,5.00,000.00,029.9,028.5,000.0,038.4,031.5,29.8,0000.0,0014.16,0005.75,0004.71
2023-06-26 07:11:00,SystemResetWarning,0832.1,5.00,000.00,030.0,028.6,000.0,038.4,031.5,29.8,0000.0,0014.39,0005.77,0004.70
2023-06-26 07:12:00,SystemResetWarning,0832.1,5.00,000.00,030.0,028.6,000.0,038.4,031.6,29.8,0000.0,0014.69,0005.81,0004.69
2023-06-26 07:13:00,SystemResetWarning,0832.1,4.99,000.00,030.0,028.6,000.0,038.5,031.6,29.8,0000.0,0014.79,0005.83,0004.69
2023-06-26 07:14:00,SystemResetWarning,0832.0,4.99,000.00,030.0,028.5,000.0,038.5,031.6,29.7,0000.0,0014.37,0005.81,0004.68
2023-06-26 07:15:00,SystemResetWarning,0832.0,5.00,000.00,030.1,026.4,000.0,038.4,031.6,29.7,0000.0,0014.42,0005.80,0004.68
2023-06-26 07:16:00,SystemResetWarning,0832.0,5.01,000.00,030.0,025.0,000.0,038.4,031.6,29.8,0000.0,0014.95,0005.83,0004.68
2023-06-26 07:17:00,SystemResetWarning,0831.9,5.01,000.00,029.9,024.9,000.0,038.3,031.2,30.0,0000.0,0014.86,0005.82,0004.67
2023-06-26 07:18:00,SystemResetWarning,0831.9,5.01,000.00,029.8,025.3,000.0,038.3,031.0,30.2,0000.0,0015.12,0005.84,0004.67
2023-06-26 07:19:00,SystemResetWarning,0831.9,5.00,000.00,029.7,025.7,000.0,038.3,031.0,30.3,0000.0,0015.08,0005.83,0004.65
2023-06-26 07:20:00,SystemResetWarning,0831.9,5.00,000.00,029.7,026.2,000.0,038.3,031.0,30.3,0000.0,0015.17,0005.84,0004.65
2023-06-26 07:21:00,SystemResetWarning,0831.8,5.00,000.00,029.7,026.6,000.0,038.3,031.1,30.4,0000.0,0014.55,0005.90,0004.66
2023-06-26 07:22:00,SystemResetWarning,0831.8,5.00,000.00,029.7,026.9,000.0,038.3,031.1,30.6,0000.0,0014.22,0005.86,0004.68
2023-06-26 07:23:00,SystemResetWarning,0831.9,5.00,000.00,029.7,027.2,000.0,038.3,031.1,30.6,0000.0,0014.05,0005.82,0004.68
2023-06-26 07:24:00,SystemResetWarning,0832.1,5.00,000.00,029.7,027.4,000.0,038.3,031.1,30.4,0000.0,0013.91,0005.80,0004.67
2023-06-26 07:25:00,SystemResetWarning,0832.1,4.99,000.00,029.7,027.6,000.0,038.3,031.2,30.4,0000.0,0014.04,0005.85,0004.68
2023-06-26 07:26:00,SystemResetWarning,0832.2,4.99,000.00,029.7,027.8,000.0,038.3,031.2,30.4,0000.0,0013.68,0005.87,0004.69
2023-06-26 07:27:00,SystemResetWarning,0831.9,5.00,000.00,029.7,027.9,000.0,038.3,031.2,30.4,0000.0,0013.50,0005.84,0004.68
2023-06-26 07:28:00,SystemResetWarning,0831.8,5.00,000.00,029.8,028.0,000.0,038.3,031.3,30.5,0000.0,0012.91,0005.84,0004.67
2023-06-26 07:29:00,SystemResetWarning,0831.7,5.00,000.00,029.8,028.1,000.0,038.3,031.3,30.4,0000.0,0013.35,0005.79,0004.68
2023-06-26 07:30:00,SystemResetWarning,0831.7,5.00,000.00,029.8,028.2,000.0,038.3,031.3,30.2,0001.6,0013.15,0005.74,0004.69
2023-06-26 07:31:00,SystemResetWarning,0831.7,5.00,000.00,029.8,028.2,000.0,038.3,031.4,30.1,0003.5,0013.87,0005.71,0004.69
2023-06-26 07:32:00,SystemResetWarning,0831.7,5.00,000.00,029.8,028.3,000.0,038.3,031.4,30.0,0001.9,0014.99,0005.70,0004.68
2023-06-26 07:33:00,SystemResetWarning,0831.7,5.00,000.00,029.9,028.4,000.0,038.4,031.4,29.9,0004.1,0015.16,0005.71,0004.66
2023-06-26 07:34:00,SystemResetWarning,0831.7,4.99,000.00,029.9,028.4,000.0,038.4,031.4,29.8,0004.0,0014.93,0005.76,0004.65
2023-06-26 07:35:00,SystemResetWarning,0831.7,5.00,000.00,029.9,028.4,000.0,038.4,031.4,29.6,0003.2,0015.47,0005.74,0004.65
2023-06-26 07:36:00,SystemResetWarning,0831.7,5.00,000.00,029.9,028.5,000.0,038.4,031.5,29.6,0003.8,0016.29,0005.72,0004.64
2023-06-26 07:37:00,SystemResetWarning,0831.7,5.00,000.00,030.0,028.5,000.0,038.4,031.5,29.6,0003.9,0016.26,0005.67,0004.63
2023-06-26 07:38:00,SystemResetWarning,0831.7,5.00,000.00,030.0,028.5,000.0,038.5,031.5,29.6,0001.9,0015.75,0005.66,0004.63
2023-06-26 07:39:00,SystemResetWarning,0831.7,5.00,000.00,030.0,028.6,000.0,038.5,031.5,29.6,0000.0,0015.44,0005.63,0004.64
2023-06-26 07:40:00,SystemResetWarning,0831.7,5.00,000.00,030.0,028.6,000.0,038.5,031.6,29.6,0000.0,0014.78,0005.66,0004.64
2023-06-26 07:41:00,SystemResetWarning,0832.0,5.00,000.00,030.0,028.6,000.0,038.5,031.6,29.6,0000.0,0015.07,0005.71,0004.63
2023-06-26 07:42:00,SystemResetWarning,0832.2,5.00,000.00,030.1,028.7,000.0,038.5,031.6,29.7,0000.0,0014.91,0005.79,0004.63
2023-06-26 07:43:00,SystemResetWarning,0832.3,5.00,000.00,030.1,028.7,000.0,038.5,031.7,29.7,0000.0,0013.65,0005.79,0004.63
2023-06-26 07:44:00,SystemResetWarning,0832.2,5.00,000.00,030.1,027.3,000.0,038.5,031.7,29.8,0000.0,0013.81,0005.81,0004.64
2023-06-26 07:45:00,SystemResetWarning,0831.7,5.00,000.00,030.1,025.3,000.0,038.4,031.6,29.8,0000.0,0014.03,0005.72,0004.63
2023-06-26 07:46:00,SystemResetWarning,0831.7,5.00,000.00,030.0,024.8,000.0,038.4,031.4,29.8,0000.0,0013.45,0005.72,0004.63
2023-06-26 07:47:00,SystemResetWarning,0831.7,5.01,000.00,029.9,025.1,000.0,038.4,031.0,30.2,0000.0,0012.63,0005.75,0004.62
2023-06-26 07:48:00,SystemResetWarning,0831.7,5.00,000.00,029.8,025.6,000.0,038.4,031.0,30.3,0000.0,0012.68,0005.77,0004.61
2023-06-26 07:49:00,SystemResetWarning,0831.7,4.99,000.00,029.8,026.0,000.0,038.4,031.0,30.4,0000.0,0012.80,0005.81,0004.61
2023-06-26 07:50:00,SystemResetWarning,0831.7,5.00,000.00,029.7,026.5,000.0,038.4,031.1,30.4,0000.4,0013.20,0005.81,0004.61
2023-06-26 07:51:00,SystemResetWarning,0831.7,5.00,000.00,029.7,026.8,000.0,038.4,031.1,30.4,0000.0,0013.69,0005.79,0004.61
2023-06-26 07:52:00,SystemResetWarning,0831.6,5.00,000.00,029.7,027.1,000.0,038.4,031.1,30.6,0000.0,0013.56,0005.77,0004.61
2023-06-26 07:53:00,SystemResetWarning,0831.6,4.98,000.00,029.7,027.4,000.0,038.4,031.1,30.7,0000.0,0014.08,0005.71,0004.60
2023-06-26 07:54:00,SystemResetWarning,0831.6,5.00,000.00,029.7,027.6,000.0,038.3,031.2,30.7,0000.0,0014.32,0005.68,0004.61
2023-06-26 07:55:00,SystemResetWarning,0831.6,5.02,000.00,029.8,027.7,000.0,038.3,031.2,30.8,0000.0,0015.15,0005.67,0004.61
2023-06-26 07:56:00,SystemResetWarning,0831.7,4.99,000.00,029.8,027.9,000.0,038.3,031.2,30.7,0000.0,0014.63,0005.72,0004.61
2023-06-26 07:57:00,SystemResetWarning,0831.7,4.99,000.00,029.8,028.0,000.0,038.3,031.3,30.7,0000.0,0015.09,0005.75,0004.62
2023-06-26 07:58:00,SystemResetWarning,0831.7,4.99,000.00,029.8,028.1,000.0,038.4,031.3,30.3,0000.0,0015.86,0005.73,0004.62
2023-06-26 07:59:00,SystemResetWarning,0831.7,5.00,000.00,029.8,028.2,000.0,038.4,031.3,29.7,0000.0,0016.89,0005.75,0004.63
